Location: Prague
(50.0830°N, 14.4670°E)
Time: 13:05:50
(UTC+02:00)

JY1SAT - Visible Passes

Search period start: 28 March 2023 00:00
Search period end: 07 April 2023 00:00
Orbit: 557 x 578 km, 97.6° (Epoch: 27 March)

Date Brightness Start Highest point End Pass type
(mag) Time Alt. Az. Time Alt. Az. Time Alt. Az.
28 Mar ? 21:50:46 51° NE 21:50:46 51° NE 21:54:20 10° N visible
28 Mar ? 23:26:50 15° WNW 23:26:50 15° WNW 23:28:24 10° NW visible
29 Mar ? 21:51:46 54° NE 21:51:46 54° NE 21:55:25 10° N visible
29 Mar ? 23:27:50 15° WNW 23:27:50 15° WNW 23:29:27 10° NW visible
30 Mar ? 21:52:45 56° ENE 21:52:45 56° ENE 21:56:31 10° N visible
30 Mar ? 23:28:49 15° WNW 23:28:49 15° WNW 23:30:28 10° NW visible
31 Mar ? 21:53:44 58° ENE 21:53:44 58° ENE 21:57:35 10° N visible
31 Mar ? 23:29:47 15° WNW 23:29:47 15° WNW 23:31:30 10° NW visible
01 Apr ? 21:54:42 60° ENE 21:54:42 60° ENE 21:58:39 10° N visible
01 Apr ? 23:30:45 14° W 23:30:45 14° W 23:32:30 10° NW visible
02 Apr ? 21:55:38 62° ENE 21:55:43 62° ENE 21:59:41 10° N visible
02 Apr ? 23:31:42 14° W 23:31:42 14° W 23:33:29 10° NW visible
03 Apr ? 21:56:35 63° E 21:56:44 63° ENE 22:00:44 10° N visible
03 Apr ? 23:32:38 14° W 23:32:38 14° W 23:34:27 10° NW visible
04 Apr ? 21:57:30 63° E 21:57:45 65° ENE 22:01:46 10° N visible
04 Apr ? 23:33:34 14° W 23:33:34 14° W 23:35:25 10° WNW visible
05 Apr ? 21:58:25 63° ESE 21:58:45 67° ENE 22:02:46 10° N visible
05 Apr ? 23:34:29 13° W 23:34:29 13° W 23:36:21 10° WNW visible
06 Apr ? 21:59:19 62° ESE 21:59:45 69° ENE 22:03:47 10° N visible
06 Apr ? 23:35:23 13° W 23:35:23 13° W 23:37:17 10° WNW visible
